Charlevoix, MI

2:17 PM EDT on May 25, 2017 (GMT -0400)
Charlevoix Municipal

Weather History for KCVX - January, 2013

Change the Weather History Date:

Wednesday, January 16, 2013

  Actual Average Record
Temperature  
Mean Temperature 28 °F -  
Max Temperature 32 °F 32 °F 36 °F (2017)
Min Temperature 23 °F 20 °F -2 °F (2004)
Degree Days  
Heating Degree Days 38    
Moisture  
Dew Point 22 °F    
Average Humidity 79    
Maximum Humidity 95    
Minimum Humidity 63    
Precipitation  
Precipitation 0.00 in - - ()
Sea Level Pressure  
Sea Level Pressure 29.80 in    
Wind  
Wind Speed 12 mph (SW)    
Max Wind Speed 25 mph    
Max Gust Speed 34 mph    
Visibility 7 miles    
Events Snow    
Averages and records for this station are not official NWS values.
T = Trace of Precipitation, MM = Missing Value Source: NWS Daily Summary

Daily Weather History Graph

Daily Weather History Graph

Search for Another Location

Airport or City:

Trip Planner

Search our weather history database for the weather conditions in past years. The results will help you decide how hot, cold, wet, or windy it might be!

Date:

Astronomy

Jan. 16, 2013 Rise Set
Actual Time 8:15 AM EST 5:26 PM EST
Civil Twilight 7:43 AM EST 5:59 PM EST
Nautical Twilight 7:06 AM EST 6:35 PM EST
Astronomical Twilight 6:31 AM EST 7:11 PM EST
Moon 10:34 AM EST (1/16) 11:36 PM EST (1/16)
Length of Visible Light 10h 16m
Length of Day
9h 10m
Waxing Crescent, 28% of the Moon is Illuminated
Jan 16
Waxing Crescent
Jan 18
First Quarter
Jan 26
Full
Feb 3
Last Quarter
Feb 10
New

Hourly Weather History & Observations

Time (EST) Temp. Windchill Dew Point Humidity Pressure Visibility Wind Dir Wind Speed Gust Speed Precip Events Conditions
12:15 AM 27.7 °F 21.3 °F 21.2 °F 77% 30.03 in 10.0 mi SSE 5.8 mph - N/A   Overcast
12:34 AM 25.7 °F 18.0 °F 20.3 °F 80% 30.02 in 10.0 mi SSE 6.9 mph - N/A   Overcast
1:14 AM 24.8 °F 16.9 °F 19.8 °F 81% 30.00 in 10.0 mi SSE 6.9 mph - N/A   Mostly Cloudy
1:35 AM 24.4 °F 14.9 °F 19.9 °F 83% 29.99 in 10.0 mi South 9.2 mph - N/A   Mostly Cloudy
1:54 AM 23.9 °F 15.0 °F 19.4 °F 83% 29.98 in 10.0 mi SSE 8.1 mph - N/A   Scattered Clouds
2:15 AM 23.7 °F 15.6 °F 19.8 °F 85% 29.97 in 10.0 mi South 6.9 mph - N/A   Clear
2:34 AM 24.3 °F 15.4 °F 20.3 °F 85% 29.97 in 10.0 mi South 8.1 mph - N/A   Clear
2:55 AM 25.2 °F 17.3 °F 21.2 °F 85% 29.96 in 10.0 mi South 6.9 mph - N/A   Scattered Clouds
3:14 AM 25.3 °F 17.6 °F 21.2 °F 84% 29.95 in 10.0 mi South 6.9 mph - N/A   Mostly Cloudy
3:35 AM 25.5 °F 18.7 °F 21.2 °F 84% 29.94 in 10.0 mi South 5.8 mph - N/A   Scattered Clouds
3:54 AM 24.6 °F 17.7 °F 20.5 °F 84% 29.93 in 10.0 mi South 5.8 mph - N/A   Scattered Clouds
4:15 AM 24.8 °F 19.1 °F 20.8 °F 85% 29.91 in 10.0 mi South 4.6 mph - N/A   Mostly Cloudy
4:34 AM 25.3 °F 18.5 °F 20.8 °F 83% 29.90 in 10.0 mi South 5.8 mph - N/A   Mostly Cloudy
4:55 AM 26.8 °F 18.5 °F 20.3 °F 77% 29.88 in 10.0 mi South 8.1 mph - N/A   Scattered Clouds
5:14 AM 26.8 °F 20.2 °F 20.1 °F 76% 29.87 in 10.0 mi South 5.8 mph - N/A   Clear
5:34 AM 24.3 °F 16.3 °F 19.6 °F 82% 29.85 in 10.0 mi South 6.9 mph - N/A   Clear
5:54 AM 25.5 °F 16.2 °F 19.8 °F 79% 29.84 in 10.0 mi SSW 9.2 mph 18.4 mph N/A   Clear
6:14 AM 27.3 °F 17.7 °F 19.8 °F 73% 29.82 in 10.0 mi SSW 10.4 mph 19.6 mph N/A   Clear
6:35 AM 27.9 °F 17.8 °F 19.4 °F 71% 29.81 in 10.0 mi SSW 11.5 mph 20.7 mph N/A   Clear
6:54 AM 28.0 °F 17.0 °F 19.9 °F 72% 29.80 in 10.0 mi SSW 13.8 mph 23.0 mph N/A   Clear
7:34 AM 27.7 °F 17.6 °F 20.8 °F 75% 29.77 in 10.0 mi SSW 11.5 mph 20.7 mph N/A   Clear
7:54 AM 27.1 °F 17.5 °F 20.3 °F 75% 29.76 in 10.0 mi SSW 10.4 mph 19.6 mph N/A   Clear
8:15 AM 27.0 °F 15.6 °F 19.9 °F 75% 29.74 in 10.0 mi South 13.8 mph 20.7 mph N/A   Clear
8:35 AM 27.1 °F 15.9 °F 19.8 °F 74% 29.74 in 10.0 mi SSW 13.8 mph 20.7 mph N/A   Clear
8:54 AM 27.9 °F 15.1 °F 19.9 °F 72% 29.72 in 10.0 mi SSW 18.4 mph 28.8 mph N/A   Scattered Clouds
9:15 AM 28.6 °F 15.6 °F 20.1 °F 71% 29.72 in 10.0 mi SSW 19.6 mph 28.8 mph N/A   Mostly Cloudy
9:35 AM 28.9 °F 16.9 °F 19.9 °F 69% 29.71 in 10.0 mi SSW 17.3 mph 26.5 mph N/A   Mostly Cloudy
9:55 AM 29.1 °F 15.7 °F 20.3 °F 70% 29.70 in 10.0 mi SSW 21.9 mph 27.6 mph N/A   Mostly Cloudy
10:15 AM 28.9 °F 16.9 °F 20.3 °F 70% 29.69 in 10.0 mi SSW 17.3 mph 26.5 mph N/A   Overcast
10:35 AM 29.3 °F 18.2 °F 21.0 °F 71% 29.67 in 10.0 mi SSW 15.0 mph 26.5 mph N/A   Overcast
10:55 AM 29.7 °F 17.4 °F 21.4 °F 71% 29.66 in 10.0 mi SSW 18.4 mph 27.6 mph N/A   Overcast
11:14 AM 29.3 °F 18.2 °F 23.0 °F 77% 29.66 in 1.8 mi SSW 15.0 mph 25.3 mph N/A Snow Light Snow
11:35 AM 29.8 °F 17.3 °F 25.3 °F 83% 29.65 in 1.0 mi SW 19.6 mph 28.8 mph N/A Snow Light Snow
11:55 AM 30.0 °F 18.3 °F 26.6 °F 87% 29.64 in 0.8 mi SW 17.3 mph 28.8 mph N/A Snow Light Snow
12:14 PM 29.8 °F 18.4 °F 27.7 °F 92% 29.64 in 0.8 mi SW 16.1 mph 26.5 mph N/A Snow Light Snow
12:35 PM 30.0 °F 16.0 °F 28.6 °F 94% 29.63 in 0.2 mi SW 25.3 mph 34.5 mph N/A Snow Snow
12:55 PM 30.2 °F 18.5 °F 28.9 °F 95% 29.63 in 0.2 mi WSW 17.3 mph 33.4 mph N/A Snow Snow
1:15 PM 30.2 °F 16.5 °F 28.8 °F 94% 29.63 in 0.5 mi WSW 24.2 mph 33.4 mph N/A Snow Light Snow
1:35 PM 30.2 °F 16.8 °F 28.4 °F 93% 29.63 in 0.8 mi WSW 23.0 mph 32.2 mph N/A Snow Light Snow
1:55 PM 30.2 °F 16.5 °F 27.9 °F 91% 29.64 in 1.5 mi West 24.2 mph 29.9 mph N/A Snow Light Snow
2:15 PM 30.2 °F 18.1 °F 26.1 °F 85% 29.64 in 3.0 mi West 18.4 mph - N/A   Overcast
2:35 PM 30.2 °F 16.5 °F 25.3 °F 82% 29.65 in 2.5 mi West 24.2 mph 29.9 mph N/A   Haze
2:54 PM 30.2 °F 16.8 °F 24.6 °F 80% 29.65 in 4.0 mi West 23.0 mph 26.5 mph N/A   Haze
3:15 PM 30.2 °F 18.5 °F 24.6 °F 80% 29.66 in 7.0 mi West 17.3 mph 24.2 mph N/A   Overcast
3:35 PM 30.7 °F 20.4 °F 24.1 °F 76% 29.67 in 10.0 mi West 13.8 mph 20.7 mph N/A   Overcast
3:54 PM 31.1 °F 20.1 °F 24.6 °F 77% 29.67 in 10.0 mi West 16.1 mph 21.9 mph N/A   Overcast
4:15 PM 31.5 °F 20.1 °F 25.2 °F 78% 29.68 in 10.0 mi West 17.3 mph - N/A   Overcast
4:35 PM 31.1 °F 18.3 °F 25.2 °F 79% 29.69 in 7.0 mi West 21.9 mph 26.5 mph N/A   Overcast
4:54 PM 30.9 °F 18.7 °F 25.7 °F 81% 29.70 in 7.0 mi West 19.6 mph 27.6 mph N/A   Overcast
5:15 PM 31.3 °F 20.3 °F 25.5 °F 79% 29.72 in 7.0 mi West 16.1 mph 25.3 mph N/A   Overcast
5:35 PM 31.5 °F 19.8 °F 25.0 °F 77% 29.73 in 7.0 mi West 18.4 mph 25.3 mph N/A   Overcast
5:54 PM 31.6 °F 19.3 °F 24.8 °F 76% 29.74 in 7.0 mi West 20.7 mph 26.5 mph N/A   Overcast
6:15 PM 32.0 °F 21.6 °F 25.0 °F 75% 29.75 in 10.0 mi West 15.0 mph 25.3 mph N/A   Overcast
6:55 PM 31.1 °F 19.3 °F 28.2 °F 89% 29.77 in 3.0 mi West 18.4 mph 24.2 mph N/A Snow Light Snow
7:14 PM 31.1 °F 20.1 °F 29.7 °F 94% 29.78 in 1.5 mi West 16.1 mph - N/A Snow Light Snow
7:35 PM 30.6 °F 19.0 °F 28.8 °F 93% 29.80 in 0.8 mi NW 17.3 mph 21.9 mph N/A Snow Snow
7:55 PM 28.0 °F 15.3 °F 26.6 °F 94% 29.81 in 0.8 mi NNW 18.4 mph 25.3 mph N/A Snow Snow
8:15 PM 27.9 °F 15.1 °F 24.8 °F 88% 29.82 in 2.5 mi NNW 18.4 mph 24.2 mph N/A Snow Light Snow
8:34 PM 28.0 °F 15.7 °F 20.1 °F 72% 29.84 in 5.0 mi NW 17.3 mph 26.5 mph N/A   Haze
8:55 PM 27.9 °F 15.1 °F 17.6 °F 65% 29.86 in 5.0 mi NNW 18.4 mph 28.8 mph N/A   Haze
9:14 PM 27.3 °F 14.8 °F 18.7 °F 70% 29.87 in 5.0 mi NNW 17.3 mph 26.5 mph N/A   Haze
9:35 PM 26.4 °F 13.2 °F 19.2 °F 74% 29.88 in 5.0 mi NNW 18.4 mph 27.6 mph N/A   Haze
9:54 PM 25.9 °F 12.1 °F 18.0 °F 72% 29.90 in 7.0 mi NNW 19.6 mph 26.5 mph N/A   Overcast
10:15 PM 25.7 °F 12.7 °F 17.8 °F 72% 29.92 in 7.0 mi NNW 17.3 mph 25.3 mph N/A   Mostly Cloudy
10:35 PM 25.2 °F 11.2 °F 15.1 °F 66% 29.93 in 7.0 mi NW 19.6 mph 27.6 mph N/A   Scattered Clouds
10:54 PM 25.2 °F 11.6 °F 14.5 °F 64% 29.93 in 7.0 mi NNW 18.4 mph 25.3 mph N/A   Mostly Cloudy
11:15 PM 24.6 °F 10.1 °F 14.5 °F 66% 29.94 in 5.0 mi NNW 20.7 mph 28.8 mph N/A   Haze
11:34 PM 24.1 °F 9.0 °F 15.8 °F 71% 29.96 in 5.0 mi NNW 21.9 mph 28.8 mph N/A   Haze
11:54 PM 23.9 °F 10.3 °F 13.1 °F 63% 29.97 in 7.0 mi NNW 17.3 mph 26.5 mph N/A   Overcast